Terug naar catalogus

SL-19 DEB

ActiefUNKNOWN
NORAD 23490·DEBRIS·🇷🇺 Russia

Gelanceerd Dec 26, 1994 vanaf Baikonur Cosmodrome

Loading…

Volgende Passages (komende 24 uur)

TLE

VersSource: Space-Track

Epoch: Sep 13, 2026, 22:48 UTC

1 23490U 94085N   26256.95030479 -.00000041  00000-0  80526-5 0  9994
2 23490  64.8238  83.2474 0134145 346.3755 167.6892 11.20509342297756

Volg SL-19 DEB in realtime met AllMySat

Download on the App Store